This demonstration page uses our WeatherBlox Daily Observations layout. Learn more.

Left ArrowRight Arrow

36.19886, -115.1175

Hourly Observations for March 15, 2017

Temp ( °F °C ) Dew Point ( °F °C ) Humidity (%) Winds ( mph kmh ) Pressure ( in mb ) Visibility ( mi km ) Precip ( " mm )
12:53 am 00:53 Clear 64 17.8 30 -1.1 28 28 NW 7 11 30.09 1019 10 16 N/A
1:53 am 01:53 Clear 64 17.8 29 -1.7 27 27 NW 7 11 30.09 1019 10 16 N/A
2:53 am 02:53 Clear 62 16.7 30 -1.1 30 30 W 3 6 30.09 1019 10 16 N/A
3:53 am 03:53 Clear 61 16.1 31 -0.6 32 32 NW 5 7 30.08 1019 10 16 N/A
4:53 am 04:53 Clear 59 15 31 -0.6 35 35 WNW 5 7 30.09 1019 10 16 N/A
5:53 am 05:53 Clear 58 14.4 31 -0.6 36 36 NW 5 7 30.09 1019 10 16 N/A
6:53 am 06:53 Sunny 57 13.9 33 0.6 41 41 N N/A 30.11 1020 10 16 N/A
7:53 am 07:53 Sunny 61 16.1 33 0.6 35 35 NW 5 7 30.12 1020 10 16 N/A
8:53 am 08:53 Sunny 64 17.8 33 0.6 32 32 N N/A 30.14 1021 10 16 N/A
9:53 am 09:53 Sunny 68 20 32 undefined 26 26 S 3 6 30.14 1021 10 16 N/A
10:53 am 10:53 Sunny 72 22.2 29 -1.7 20 20 SE 7 11 30.14 1021 10 16 N/A
11:53 am 11:53 Sunny 76 24.4 27 -2.8 16 16 ESE 7 11 30.12 1020 10 16 N/A
12:53 pm 12:53 Sunny 79 26.1 28 -2.2 15 15 SE 7 11 30.09 1019 10 16 N/A
1:53 pm 13:53 Sunny 81 27.2 28 -2.2 14 14 SSE 10 17 30.06 1018 10 16 N/A
2:53 pm 14:53 Sunny 85 29.4 27 -2.8 12 12 SE 12 19 30.02 1017 10 16 N/A
3:53 pm 15:53 Sunny 85 29.4 22 -5.6 10 10 E 8 13 30.01 1016 10 16 N/A
4:53 pm 16:53 Sunny 86 30 21 -6.1 9 9 WSW 15 24 29.99 1016 10 16 N/A
5:53 pm 17:53 Sunny 85 29.4 19 -7.2 9 9 SW 12 19 29.99 1016 10 16 N/A
6:53 pm 18:53 Clear 82 27.8 26 -3.3 13 13 WSW 5 7 30.00 1016 10 16 N/A
7:53 pm 19:53 Clear 79 26.1 27 -2.8 15 15 WSW 8 13 30.02 1017 10 16 N/A
8:53 pm 20:53 Clear 76 24.4 27 -2.8 16 16 SSW 8 13 30.02 1017 10 16 N/A
9:53 pm 21:53 Clear 76 24.4 27 -2.8 16 16 SSW 7 11 30.03 1017 10 16 N/A
10:53 pm 22:53 Clear 73 22.8 30 -1.1 20 20 SSW 8 13 30.03 1017 10 16 N/A
11:53 pm 23:53 Clear 73 22.8 32 undefined 22 22 SSW 10 17 30.02 1017 10 16 N/A

Powered by AerisWeather